sat.trackr.live / text

‹ back to catalog

STARLINK-34620

NORAD 64803 · 2025-150P

PAYLOAD ACTIVE UNKNOWN

§ Identity

Operator
Country
US
Launch date
2025-07-16
Launch site
AFWTR
Launch vehicle
Mass (kg)
RCS (m²)

Purposes: comms

External: N2YO · Heavens-Above · Gunter

§ Orbital elements

Epoch: 2026-05-25T03:15:29.339136Z

Period
96.11 min
Inclination
70.0006°
Eccentricity
0.0002881
Mean motion
14.98336260 rev/d
Perigee alt
570.0 km
Apogee alt
574.0 km
Semi-major
6,950.2 km
B*
2.3436e-4
RAAN
301.8645°
Arg perigee
263.9218°
Mean anomaly
96.1613°
Rev number
4,796

§ Raw data

STARLINK-346201 64803U 25150P   26145.13575624  .00002705  00000+0  23436-3 0  99992 64803  70.0006 301.8645 0002881 263.9218  96.1613 14.98336260 47967

JSON: /api/v1/satellites/64803 · /tle

For live sub-satellite position, see the globe view (requires WebGL).

§ Visibility from observer

Set your observer location to see the next 7 days of passes ≥ 10°. The values pass through the URL so the page stays shareable.

No JS? Fill the form by hand. The geolocation button needs JavaScript.